Weather History for Peru, IN

Change the Weather History Date:

Saturday, July 6, 2013

  Actual Average Record
Temperature  
Mean Temperature 72 °F -  
Max Temperature 75 °F 81 °F 100 °F (2012)
Min Temperature 68 °F 64 °F 51 °F (2006)
Cooling Degree Days 6    
Growing Degree Days 22 (Base 50)    
Moisture  
Dew Point 70 °F    
Average Humidity 95    
Maximum Humidity 100    
Minimum Humidity 83    
Precipitation  
Precipitation 0.37 in - - ()
Sea Level Pressure  
Sea Level Pressure 30.08 in    
Wind  
Wind Speed 5 mph (SSW)    
Max Wind Speed 12 mph    
Max Gust Speed -    
Visibility 9 miles    
Events Rain    
Averages and records for this station are not official NWS values.
T = Trace of Precipitation, MM = Missing Value Source: NWS Daily Summary

Daily Weather History Graph

Daily Weather History Graph

Search for Another Location

Airport:

Trip Planner

Search our weather history database for the weather conditions in past years. The results will help you decide how hot, cold, wet, or windy it might be!

Date:

Astronomy

Jul. 06, 2013 Rise Set
Actual Time 6:20 AM EDT 9:18 PM EDT
Civil Twilight 5:47 AM EDT 9:51 PM EDT
Nautical Twilight 5:05 AM EDT 10:32 PM EDT
Astronomical Twilight 4:16 AM EDT 11:21 PM EDT
Moon 5:06 AM EDT (7/6) 7:59 PM EDT (7/6)
Length of Visible Light 16h 03m
Length of Day
14h 57m
Waning Crescent, 2% of the Moon is Illuminated
Jul 6
Waning Crescent
Jul 8
New
Jul 15
First Quarter
Jul 22
Full
Jul 29
Last Quarter

Hourly Weather History & Observations

Time (EDT) Temp. Dew Point Humidity Pressure Visibility Wind Dir Wind Speed Gust Speed Precip Events Conditions
12:58 AM 69.4 °F 68.0 °F 95% 30.11 in 10.0 mi SSE 3.5 mph - N/A   Clear
1:58 AM 69.4 °F 68.5 °F 97% 30.11 in 10.0 mi SSE 4.6 mph - N/A   Clear
2:58 AM 69.1 °F 68.5 °F 98% 30.10 in 10.0 mi SE 4.6 mph - N/A   Partly Cloudy
3:58 AM 69.1 °F 69.1 °F 100% 30.09 in 10.0 mi SE 5.8 mph - N/A   Clear
4:58 AM 68.9 °F 68.9 °F 100% 30.08 in 10.0 mi SE 3.5 mph - N/A   Clear
5:58 AM 68.4 °F 68.4 °F 100% 30.09 in 10.0 mi SSE 2.3 mph - N/A   Clear
6:58 AM 68.9 °F 68.7 °F 99% 30.10 in 10.0 mi SE 4.6 mph - N/A   Scattered Clouds
7:03 AM 69.8 °F 69.8 °F 100% 30.10 in 10.0 mi SE 5.8 mph - N/A   Mostly Cloudy
7:13 AM 69.8 °F 69.8 °F 100% 30.10 in 10.0 mi SE 5.8 mph - N/A   Mostly Cloudy
7:28 AM 69.8 °F 69.8 °F 100% 30.10 in 10.0 mi SSE 4.6 mph - N/A   Overcast
7:43 AM 69.8 °F 69.8 °F 100% 30.10 in 10.0 mi SSE 5.8 mph - N/A   Mostly Cloudy
7:53 AM 69.8 °F 69.8 °F 100% 30.10 in 10.0 mi SSE 4.6 mph - N/A   Mostly Cloudy
7:58 AM 70.2 °F 70.2 °F 100% 30.10 in 10.0 mi South 4.6 mph - N/A   Mostly Cloudy
8:58 AM 71.2 °F 71.2 °F 100% 30.10 in 10.0 mi SSE 4.6 mph - N/A   Mostly Cloudy
9:03 AM 71.6 °F 71.6 °F 100% 30.10 in 10.0 mi SSE 4.6 mph - N/A   Mostly Cloudy
9:08 AM 71.6 °F 71.6 °F 100% 30.10 in 10.0 mi SSE 4.6 mph - N/A   Overcast
9:13 AM 71.6 °F 71.6 °F 100% 30.10 in 10.0 mi SSE 4.6 mph - N/A Rain Light Rain
9:23 AM 69.8 °F 69.8 °F 100% 30.10 in 3.0 mi South 6.9 mph - N/A Rain Light Rain
9:28 AM 69.8 °F 69.8 °F 100% 30.10 in 2.0 mi SW 5.8 mph - N/A Rain Heavy Rain
9:33 AM 69.8 °F 69.8 °F 100% 30.10 in 0.8 mi Variable 1.2 mph - N/A Rain Heavy Rain
9:39 AM 69.8 °F 69.8 °F 100% 30.10 in 1.0 mi SSE 4.6 mph - N/A Rain Heavy Rain
9:44 AM 69.8 °F 69.8 °F 100% 30.10 in 6.0 mi SSW 3.5 mph - N/A Rain Light Rain
9:58 AM 70.2 °F 70.2 °F 100% 30.10 in 7.0 mi West 2.3 mph - 0.37 in Rain Light Rain
10:44 AM 71.6 °F 71.6 °F 100% 30.09 in 10.0 mi West 4.6 mph - N/A   Overcast
10:58 AM 71.2 °F 71.2 °F 100% 30.09 in 10.0 mi WNW 1.2 mph - 0.00 in   Overcast
11:14 AM 71.6 °F 71.6 °F 100% 30.10 in 10.0 mi Variable 1.2 mph - N/A   Overcast
11:58 AM 73.0 °F 70.9 °F 93% 30.09 in 10.0 mi SW 11.5 mph - N/A   Overcast
12:58 PM 72.5 °F 69.1 °F 89% 30.09 in 10.0 mi SW 8.1 mph - N/A   Overcast
1:29 PM 73.4 °F 69.8 °F 88% 30.08 in 10.0 mi SW 8.1 mph - N/A   Mostly Cloudy
1:58 PM 73.4 °F 69.8 °F 88% 30.09 in 10.0 mi SW 10.4 mph - N/A   Mostly Cloudy
2:58 PM 74.3 °F 69.6 °F 85% 30.06 in 10.0 mi WSW 6.9 mph - N/A   Mostly Cloudy
3:28 PM 75.2 °F 69.8 °F 83% 30.07 in 10.0 mi WSW 3.5 mph - N/A   Mostly Cloudy
3:33 PM 75.2 °F 69.8 °F 83% 30.06 in 10.0 mi WSW 8.1 mph - N/A   Scattered Clouds
3:36 PM 75.2 °F 69.8 °F 83% 30.06 in 10.0 mi WSW 6.9 mph - N/A   Scattered Clouds
4:58 PM 74.1 °F 68.9 °F 84% 30.05 in 10.0 mi SW 11.5 mph - N/A   Partly Cloudy
5:58 PM 73.9 °F 69.3 °F 85% 30.03 in 10.0 mi WSW 9.2 mph - N/A   Partly Cloudy
6:58 PM 73.6 °F 68.9 °F 85% 30.03 in 10.0 mi WSW 8.1 mph - N/A   Clear
7:33 PM 73.4 °F 69.8 °F 88% 30.03 in 10.0 mi WSW 8.1 mph - N/A   Mostly Cloudy
7:58 PM 72.5 °F 69.1 °F 89% 30.03 in 10.0 mi WSW 8.1 mph - N/A   Mostly Cloudy
8:13 PM 71.6 °F 68.0 °F 88% 30.04 in 10.0 mi WSW 8.1 mph - N/A   Overcast
8:58 PM 70.7 °F 68.5 °F 93% 30.04 in 10.0 mi SSW 5.8 mph - N/A   Partly Cloudy
9:58 PM 69.3 °F 68.0 °F 96% 30.06 in 10.0 mi SW 5.8 mph - N/A   Scattered Clouds
10:58 PM 68.4 °F 67.8 °F 98% 30.08 in 10.0 mi SW 6.9 mph - N/A   Scattered Clouds
11:58 PM 68.4 °F 67.5 °F 97% 30.07 in 10.0 mi South 5.8 mph - N/A   Mostly Cloudy